阿斯特拉 2E星 (ASTRA 2E)

导读

ASTRA 2E是由欧洲卫星运营商SES公司运营的高功率新一代通信卫星,于2013年9月29日由俄罗斯“质子-M”火箭在哈萨克斯坦拜科努尔发射场发射升空。卫星发射重量超6000公斤,设计寿命15年,携带Ku/Ka波段有效载荷,主要覆盖欧洲、中东和非洲地区,可增强英国及爱尔兰电视市场覆盖,满足广播电视、数字电视分发等多媒体业务需求。

Basic Information
目录编号:
39285
目录名称:
ASTRA 2E
国际标识:
2013-056A
轨道中心:
EARTH
卫星名称:
阿斯特拉 2E星
卫星全名:
阿斯特拉 2E星 (ASTRA 2E)
卫星状态:
在轨 (已飞行4639 天)
发射日期:
2013-09-29 UTC
国别 :
(SES)
星等 :
--
Orbit Information
数据来源 国际轨道数据 AOE轨道数据
星历时间 2026-06-12T14:29:03+0800
13小时前
查看轨道信息
2026-06-12T09:00:00+0800
18小时前
查看轨道信息
半长轴 42165.261km 42165.205km
偏心率 0.0002726 0.0002546
轨道倾角 0.062° 0.062°
近地点辐角 113.185° 111.145°
升交点赤经 329.652° 330.822°
平近点角 303.528° 221.912°
近地点 35775.629km 35776.332km
远地点 35798.619km 35797.804km
周期 1436.124分钟 1436.121分钟
每日圈数 1.002699 1.002701
Detailed Information
卫星平台:
Eurostar E3000
平衡模式:
三轴稳定
覆盖范围:
全球
运营商:
欧洲卫星公司
运营商所在国:
卢森堡
制造商(研发单位):
空客防务与航天公司
制造商所在国:
法国大都会
使用方式:
暂无
Satellite Introduction
阿斯特拉卫星是由SES阿斯特拉运营的商业通信卫星,主要提供电视直播到户业务。Astra卫星包括三个系列共19颗卫星,分别定点在三个不同轨位:Astra-1系列包括十三颗卫星,定点东经19.2度;Astra-2系列包括4颗卫星,定点东经28.2度;Astra-3系列包括2颗卫星,定点东经23.5度。该卫星仍在工作。
2D Orbit Map
3D Orbit Map
Orbit Altitude Analysis Chart
Orbit Inclination Analysis Chart
Orbit Comprehensive Analysis Chart
View Comprehensive Chart